This is the latest recevied weather packets stored in our database for station/object SP8MDH-4. If no packets are shown the sender has not sent any weather packets the latest 10 day(s).
| Time | Temp. | Humidity | Pressure | Rain* | Wind** | Luminosity | Snow |
|---|---|---|---|---|---|---|---|
| 1777922099 | 27.22° C | 21% | 1013.1 hPa | - | - | - | - |
| 1777919099 | 27.78° C | 22% | 1012.9 hPa | - | - | - | - |
| 1777917599 | 27.78° C | 21% | 1012.7 hPa | - | - | - | - |
| 1777916098 | 27.78° C | 21% | 1012.7 hPa | - | - | - | - |
| 1777908598 | 28.33° C | 23% | 1012.9 hPa | - | - | - | - |
| 1777905598 | 27.78° C | 23% | 1013.3 hPa | - | - | - | - |
| 1777904098 | 27.78° C | 23% | 1013.4 hPa | - | - | - | - |
| 1777902598 | 27.78° C | 23% | 1013.6 hPa | - | - | - | - |
| 1777901098 | 27.78° C | 23% | 1013.7 hPa | - | - | - | - |
| 1777899598 | 27.22° C | 23% | 1013.9 hPa | - | - | - | - |
| 1777898097 | 27.22° C | 23% | 1014.2 hPa | - | - | - | - |
| 1777896597 | 27.22° C | 23% | 1014.3 hPa | - | - | - | - |
| 1777895097 | 27.22° C | 23% | 1014.7 hPa | - | - | - | - |
| 1777893597 | 26.67° C | 24% | 1014.8 hPa | - | - | - | - |
| 1777890597 | 26.67° C | 24% | 1015.4 hPa | - | - | - | - |
| 1777889097 | 26.11° C | 24% | 1015.8 hPa | - | - | - | - |
| 1777887597 | 26.11° C | 24% | 1016 hPa | - | - | - | - |
| 1777886097 | 26.11° C | 25% | 1016.3 hPa | - | - | - | - |
| 1777884597 | 26.11° C | 25% | 1016.3 hPa | - | - | - | - |
| 1777883097 | 25.56° C | 25% | 1016.4 hPa | - | - | - | - |
| 1777881597 | 25° C | 25% | 1016.4 hPa | - | - | - | - |
| 1777880097 | 25° C | 25% | 1016.5 hPa | - | - | - | - |
| 1777878596 | 24.44° C | 25% | 1016.5 hPa | - | - | - | - |
| 1777877096 | 24.44° C | 25% | 1016.6 hPa | - | - | - | - |
| 1777875596 | 24.44° C | 25% | 1016.6 hPa | - | - | - | - |
* Rain since midnight (hover to see other rain measurements)
** Current wind speed in m/s (hover to see current wind gust speed)